{"data":{"norad_id":63553,"epoch":"2026-05-25T03:12:39.487104Z","epoch_age_seconds":63394,"freshness":"FRESH","line1":"1 63553U 25075F   26145.13379036  .00159482  00000+0  12153-2 0  9993","line2":"2 63553  42.9973  52.8077 0000661 140.2496 219.8420 15.70983748 65274","mean_motion":15.70983748,"eccentricity":6.61e-5,"inclination_deg":42.9973,"raan_deg":52.8077,"arg_perigee_deg":140.2496,"mean_anomaly_deg":219.842,"bstar":0.0012153,"rev_number":6527,"period_min":91.662310436581,"perigee_km":355.63910218703,"apogee_km":356.52936623419,"semimajor_km":6734.2212342106,"source":"CELESTRAK","updated_at":"2026-05-25T13:38:20.041657Z"}}